PLATFORM,ARGOS_ID,DATE (YYYY/MM/DD HH:MI:SS),LATITUDE (degree_north),LONGITUDE (degree_east),TEMP LEVEL0 (degree_Celsius),EWCT LEVEL1 (meter/second),NSCT LEVEL1 (meter/second),QC,SVP_RCBN_Number,SVP_GNRL_ImmPercent,SVP_GNRL_BattVolt
61796,80035,2011/05/17 17:30:00,42.8610,9.5460,-5,,,00111499,4,0,0
61796,80035,2011/05/17 18:00:00,42.8610,9.5460,-5,0,0,00111400,1,0,0
61796,80035,2011/05/17 18:02:39,42.7107,9.4671,22.52,,,00144499,4,0,12.3
61796,80035,2011/05/17 18:30:11,42.7557,9.4898,20.76,1.12229,3.02892,00144400,1,28,12.3
61796,80035,2011/05/17 18:32:39,42.7557,9.4898,20.76,0,0,00144400,4,28,12.3
61796,80035,2011/05/17 19:00:11,42.8302,9.5304,18.76,2.00533,5.01454,00144100,4,100,12.5
61796,80035,2011/05/17 19:30:12,42.8618,9.5457,18.92,0.692589,1.951,00144100,4,85,12.5
61796,80035,2011/05/17 20:00:11,42.8613,9.5453,18.92,-0.018122,-0.030905,00111100,4,9,12.5
61796,80035,2011/05/17 20:30:11,42.8613,9.5453,18.92,0,0,00111100,1,9,12.5
61796,80035,2011/05/17 21:00:11,42.8592,9.5468,18.92,0.067923,-0.129727,00111100,4,9,12.5
61796,80035,2011/05/17 21:30:11,42.8576,9.5492,18.84,0.10868,-0.09884,00111100,4,9,12.5
61796,80035,2011/05/17 22:00:11,42.8561,9.5517,18.76,0.113211,-0.092662,00111100,1,7,12.5
61796,80035,2011/05/17 22:30:11,42.8561,9.5517,18.76,0,0,00111100,1,7,12.5
61796,80035,2011/05/17 22:30:58,42.8551,9.5538,18.68,3.6421,-2.36585,00144100,1,7,12.5
61796,80035,2011/05/17 23:00:11,42.8543,9.5556,18.6,0.0837,-0.050745,00111100,1,9,12.5
61796,80035,2011/05/17 23:30:12,42.8521,9.5563,18.68,0.031683,-0.135829,00111100,3,9,12.5
61796,80035,2011/05/18 00:00:11,42.8497,9.5568,18.76,0.022657,-0.148342,00111100,3,12,12.5
61796,80035,2011/05/18 00:30:35,42.8472,9.5579,18.76,0.049164,-0.152405,00111100,1,14,12.5
61796,80035,2011/05/18 01:00:12,42.8448,9.5593,18.76,0.06423,-0.150179,00111100,1,17,12.5
61796,80035,2011/05/18 01:30:18,42.8424,9.5607,18.76,0.063201,-0.147767,00111100,4,17,12.5
61796,80035,2011/05/18 02:00:12,42.8400,9.5620,18.68,0.059082,-0.148756,00111100,4,17,12.5
61796,80035,2011/05/18 02:30:13,42.8375,9.5637,18.76,0.076963,-0.154352,00111100,6,17,12.5
61796,80035,2011/05/18 03:00:11,42.8347,9.5657,18.76,0.0907,-0.173162,00111100,6,19,12.5
61796,80035,2011/05/18 03:30:13,42.8319,9.5677,18.68,0.090503,-0.172778,00111100,3,19,12.5
61796,80035,2011/05/18 04:00:11,42.8290,9.5700,18.68,0.104315,-0.179347,00111100,1,15,12.5
61796,80035,2011/05/18 04:30:35,42.8261,9.5723,18.6,0.102833,-0.17679,00111100,1,17,12.5
61796,80035,2011/05/18 05:00:11,42.8231,9.5748,18.52,0.114801,-0.187829,00111100,1,17,12.5
61796,80035,2011/05/18 05:30:12,42.8202,9.5777,18.44,0.131327,-0.179048,00111100,1,17,12.5
61796,80035,2011/05/18 06:00:12,42.8202,9.5777,18.52,0,0,00111100,1,17,12.5
61796,80035,2011/05/18 06:30:11,42.8172,9.5808,18.68,0.140547,-0.185428,00111100,1,15,12.5
61796,80035,2011/05/18 07:00:11,42.8114,9.5880,18.68,0.326273,-0.358295,00111100,4,15,12.5
61796,80035,2011/05/18 07:30:12,42.8082,9.5917,18.68,0.167587,-0.19757,00111100,4,15,12.5
61796,80035,2011/05/18 08:00:11,42.8050,9.5953,18.76,0.163247,-0.19779,00111100,4,15,12.5
61796,80035,2011/05/18 08:30:35,42.8017,9.5987,18.76,0.152073,-0.201175,00111100,4,15,12.5
61796,80035,2011/05/18 09:00:12,42.7991,9.6021,18.92,0.156102,-0.162694,00111100,3,14,12.5
61796,80035,2011/05/18 09:30:11,42.7969,9.6055,19.24,0.154199,-0.13598,00111100,3,14,12.5
61796,80035,2011/05/18 10:00:13,42.7947,9.6092,19.8,0.167532,-0.135754,00111100,3,12,12.5
61796,80035,2011/05/18 10:30:13,42.7927,9.6131,19.88,0.17679,-0.12355,00111100,3,14,12.5
61796,80035,2011/05/18 11:00:11,42.7907,9.6169,19.48,0.172454,-0.123687,00111100,3,15,12.4
61796,80035,2011/05/18 11:30:11,42.7891,9.6210,19.72,0.185867,-0.09884,00111100,1,15,12.4
61796,80035,2011/05/18 12:00:11,42.7891,9.6210,19.72,0,0,00111100,1,15,12.4
61796,80035,2011/05/18 12:30:35,42.7875,9.6253,19.64,0.192374,-0.097539,00111100,3,17,12.5
61796,80035,2011/05/18 13:00:08,42.7860,9.6297,19.72,0.202515,-0.094074,00111100,3,15,12.5
61796,80035,2011/05/18 13:30:11,42.7827,9.6387,19.8,0.407359,-0.203518,00111100,3,14,12.5
61796,80035,2011/05/18 14:00:11,42.7810,9.6433,19.88,0.208561,-0.105017,00111100,5,17,12.5
61796,80035,2011/05/18 14:30:11,42.7789,9.6480,19.96,0.213102,-0.129727,00111100,5,17,12.5
61796,80035,2011/05/18 15:00:11,42.7768,9.6527,20.36,0.213109,-0.129727,00111100,1,15,12.5
61796,80035,2011/05/18 15:01:15,42.7768,9.6527,20.36,0,0,00111100,4,15,12.5
61796,80035,2011/05/18 15:30:11,42.7748,9.6569,20.6,0.197465,-0.128105,00111100,4,15,12.5
61796,80035,2011/05/18 16:00:11,42.7726,9.6607,20.6,0.172312,-0.135905,00111100,4,14,12.5
61796,80035,2011/05/18 16:30:35,42.7704,9.6648,20.44,0.183476,-0.134117,00111100,4,14,12.5
61796,80035,2011/05/18 17:00:17,42.7684,9.6681,20.28,0.151162,-0.124798,00111100,3,12,12.5
61796,80035,2011/05/18 17:30:11,42.7664,9.6713,20.12,0.145605,-0.123963,00111100,3,14,12.5
61796,80035,2011/05/18 18:00:11,42.7645,9.6746,19.96,0.14966,-0.117372,00111100,1,14,12.5
61796,80035,2011/05/18 18:30:12,42.7626,9.6775,20.04,0.13145,-0.117307,00111100,1,14,12.5
61796,80035,2011/05/18 19:00:11,42.7607,9.6801,20.04,0.117987,-0.117438,00111100,1,15,12.5
61796,80035,2011/05/18 19:30:18,42.7592,9.6824,19.96,0.103913,-0.092303,00111100,3,15,12.5
61796,80035,2011/05/18 20:00:13,42.7578,9.6841,19.88,0.077321,-0.086726,00111100,3,15,12.5
61796,80035,2011/05/18 20:30:12,42.7566,9.6855,19.8,0.063536,-0.074171,00111100,1,15,12.5
61796,80035,2011/05/18 21:00:12,42.7566,9.6855,19.8,0,0,00111100,1,15,12.5
61796,80035,2011/05/18 21:00:58,42.7555,9.6878,19.72,4.08225,-2.65901,00144100,1,15,12.5
61796,80035,2011/05/18 21:30:11,42.7546,9.6897,19.64,0.088493,-0.057088,00111100,1,15,12.5
61796,80035,2011/05/18 21:30:58,42.7555,9.6878,19.72,-3.30059,2.12926,00144100,1,15,12.5
61796,80035,2011/05/18 22:00:11,42.7540,9.6914,19.64,0.167671,-0.095147,00111100,3,14,12.5
61796,80035,2011/05/18 22:30:12,42.7537,9.6937,19.24,0.10427,-0.018522,00111100,3,14,12.5
61796,80035,2011/05/18 23:00:11,42.7533,9.6960,19.4,0.104386,-0.024724,00111100,1,12,12.5
61796,80035,2011/05/18 23:30:35,42.7529,9.6980,19.56,0.089527,-0.024385,00111100,1,12,12.5
61796,80035,2011/05/19 00:00:11,42.7527,9.6999,19.48,0.08735,-0.012522,00111100,1,15,12.5
61796,80035,2011/05/19 00:30:10,42.7524,9.7021,19.56,0.099849,-0.018543,00111100,1,15,12.5
61796,80035,2011/05/19 01:00:11,42.7522,9.7045,19.4,0.108806,-0.012348,00111100,3,14,12.5
61796,80035,2011/05/19 01:30:16,42.7518,9.7071,19.24,0.117613,-0.024642,00111100,3,14,12.5
61796,80035,2011/05/19 02:00:11,42.7515,9.7096,19.32,0.11372,-0.018584,00111100,3,14,12.5
61796,80035,2011/05/19 02:30:17,42.7512,9.7124,19.24,0.126591,-0.018471,00111100,3,14,12.5
61796,80035,2011/05/19 03:00:11,42.7510,9.7150,19.24,0.118335,-0.012396,00111100,1,14,12.5
61796,80035,2011/05/19 03:30:11,42.7506,9.7177,19.24,0.122478,-0.02471,00111100,4,14,12.5
61796,80035,2011/05/19 04:00:11,42.7506,9.7177,19.24,0,0,00111100,1,14,12.5
61796,80035,2011/05/19 04:01:04,42.7502,9.7206,19.16,4.46777,-0.839207,00144100,4,12,12.5
61796,80035,2011/05/19 04:30:11,42.7496,9.7236,19.16,0.140217,-0.038189,00111100,4,12,12.5
61796,80035,2011/05/19 04:31:04,42.7502,9.7206,19.16,-4.62187,1.25881,00144100,1,12,12.5
61796,80035,2011/05/19 05:00:12,42.7487,9.7271,19.16,0.303632,-0.095419,00111100,4,12,12.5
61796,80035,2011/05/19 05:30:11,42.7487,9.7271,19.16,0,0,00111100,4,12,12.5
61796,80035,2011/05/19 06:00:17,42.7476,9.7302,19.08,0.140161,-0.067727,00111100,4,12,12.5
61796,80035,2011/05/19 06:30:11,42.7453,9.7358,19.08,0.254896,-0.142558,00111100,1,14,12.5
61796,80035,2011/05/19 07:00:11,42.7441,9.7384,19.16,0.117953,-0.07413,00111100,3,15,12.5
61796,80035,2011/05/19 07:30:12,42.7431,9.7408,19.24,0.108821,-0.061741,00111100,3,15,12.5
61796,80035,2011/05/19 08:00:12,42.7421,9.7429,19.24,0.095273,-0.061775,00111100,7,15,12.5
61796,80035,2011/05/19 08:30:33,42.7411,9.7447,19.16,0.080722,-0.061063,00111100,7,15,12.5
61796,80035,2011/05/19 09:00:11,42.7404,9.7462,19.16,0.068896,-0.043778,00111100,5,14,12.5
61796,80035,2011/05/19 09:30:10,42.7399,9.7476,19.24,0.063553,-0.030905,00111100,5,15,12.5
61796,80035,2011/05/19 10:00:11,42.7393,9.7487,19.16,0.04988,-0.037044,00111100,1,20,12.5
61796,80035,2011/05/19 10:30:11,42.7393,9.7487,19.16,0,0,00111100,3,20,12.5
61796,80035,2011/05/19 11:00:11,42.7392,9.7497,19.24,0.045371,-0.006177,00111100,3,20,12.5
61796,80035,2011/05/19 11:30:14,42.7401,9.7504,19.24,0.031706,0.055505,00111100,1,22,12.5
61796,80035,2011/05/19 12:00:36,42.7407,9.7507,19.24,0.013447,0.036617,00111100,1,22,12.5
61796,80035,2011/05/19 12:30:10,42.7418,9.7509,19.16,0.009207,0.068948,00111100,1,22,12.5
61796,80035,2011/05/19 13:00:34,42.7428,9.7519,19.16,0.044771,0.060962,00111100,4,20,12.5
61796,80035,2011/05/19 13:30:12,42.7442,9.7529,19.24,0.045929,0.087555,00111100,4,22,12.5
61796,80035,2011/05/19 14:00:11,42.7455,9.7542,19.24,0.059009,0.080352,00111100,4,23,12.5
61796,80035,2011/05/19 14:30:12,42.7468,9.7555,19.16,0.058942,0.080263,00111100,4,23,12.5
61796,80035,2011/05/19 15:00:12,42.7468,9.7555,19.16,0,0,00111100,1,23,12.5
61796,80035,2011/05/19 15:30:11,42.7483,9.7572,19.16,0.077163,0.092714,00111100,1,23,12.5
61796,80035,2011/05/19 16:00:19,42.7506,9.7618,19,0.207747,0.141454,00111100,1,25,12.5
61796,80035,2011/05/19 16:30:34,42.7518,9.7646,19,0.125964,0.073517,00111100,1,25,12.5
61796,80035,2011/05/19 17:00:14,42.7530,9.7675,19,0.133025,0.074963,00111100,1,25,12.5
61796,80035,2011/05/19 17:30:35,42.7539,9.7710,19,0.15693,0.054956,00111100,1,25,12.5
61796,80035,2011/05/19 18:00:11,42.7547,9.7745,18.92,0.160904,0.050088,00111100,1,28,12.3
61796,80035,2011/05/19 18:30:11,42.7551,9.7778,18.92,0.149685,0.02471,00111100,3,28,12.3
61796,80035,2011/05/19 19:00:14,42.7555,9.7809,18.92,0.140379,0.024669,00111100,3,25,12.5
61796,80035,2011/05/19 19:31:05,42.7559,9.7842,18.84,0.145559,0.024029,00111100,3,25,12.5
61796,80035,2011/05/19 20:00:12,42.7564,9.7874,18.84,0.14955,0.031825,00111100,1,22,12.5
61796,80035,2011/05/19 20:30:12,42.7566,9.7908,18.84,0.154217,0.012355,00111100,1,22,12.5
61796,80035,2011/05/19 21:00:12,42.7567,9.7940,18.84,0.145145,0.006177,00111100,1,22,12.5
61796,80035,2011/05/19 22:00:35,42.7567,9.7995,18.76,0.123942,0,00111100,1,20,12.5
61796,80035,2011/05/19 22:30:12,42.7565,9.8020,18.76,0.114862,-0.012515,00111100,1,20,12.5
61796,80035,2011/05/19 23:00:12,42.7566,9.8043,18.76,0.104323,0.006177,00111100,3,20,12.5
61796,80035,2011/05/19 23:30:36,42.7570,9.8062,18.76,0.085046,0.024385,00111100,3,20,12.5
61796,80035,2011/05/20 00:00:18,42.7570,9.8062,18.76,0,0,00111100,4,20,12.5
61796,80035,2011/05/20 00:30:13,42.7582,9.8092,18.68,0.136451,0.074336,00111100,4,20,12.5
61796,80035,2011/05/20 01:00:12,42.7587,9.8108,18.68,0.072611,0.030905,00111100,4,19,12.5
61796,80035,2011/05/20 01:30:19,42.7594,9.8125,18.6,0.076807,0.043075,00111100,3,19,12.5
61796,80035,2011/05/20 02:00:19,42.7600,9.8141,18.6,0.072569,0.037065,00111100,3,20,12.5
61796,80035,2011/05/20 02:30:13,42.7600,9.8141,18.6,0,0,00111100,1,20,12.5
61796,80035,2011/05/20 02:31:06,42.7608,9.8158,18.6,2.61862,1.67841,00144100,1,20,12.5
61796,80035,2011/05/20 03:00:11,42.7613,9.8180,18.6,0.102925,0.031861,00111100,1,22,12.5
61796,80035,2011/05/20 03:01:06,42.7608,9.8158,18.6,-3.26553,-1.01086,00144100,1,20,12.5
61796,80035,2011/05/20 03:30:12,42.7617,9.8198,18.6,0.187029,0.057317,00111100,5,22,12.5
61796,80035,2011/05/20 04:00:17,42.7619,9.8219,18.6,0.09498,0.012321,00111100,5,20,12.5
61796,80035,2011/05/20 04:30:24,42.7622,9.8235,18.6,0.072285,0.018461,00111100,3,20,12.5
61796,80035,2011/05/20 05:00:12,42.7626,9.8248,18.6,0.059355,0.024876,00111100,3,17,12.5
61796,80035,2011/05/20 05:30:12,42.7626,9.8248,18.6,0,0,00111100,1,17,12.5
61796,80035,2011/05/20 05:30:53,42.7631,9.8273,18.6,4.97781,1.35604,00144100,1,19,12.5
61796,80035,2011/05/20 06:00:11,42.7635,9.8290,18.68,0.078942,0.0253,00111100,3,20,12.5
61796,80035,2011/05/20 06:30:18,42.7639,9.8308,18.68,0.081319,0.024614,00111100,3,20,12.5
61796,80035,2011/05/20 07:00:18,42.7642,9.8328,18.68,0.090705,0.018532,00111100,3,20,12.4
61796,80035,2011/05/20 07:30:19,42.7644,9.8349,18.76,0.095187,0.012348,00111100,4,20,12.4
61796,80035,2011/05/20 08:00:12,42.7648,9.8370,18.76,0.095611,0.024806,00111100,4,17,12.5
61796,80035,2011/05/20 08:30:12,42.7653,9.8390,18.84,0.090703,0.030887,00111100,4,19,12.5
61796,80035,2011/05/20 09:00:18,42.7657,9.8412,18.84,0.099442,0.024628,00111100,6,19,12.5
61796,80035,2011/05/20 09:30:10,42.7662,9.8437,19.08,0.113884,0.031025,00111100,6,19,12.5
61796,80035,2011/05/20 10:00:10,42.7671,9.8457,19.24,0.090701,0.055597,00111100,1,20,12.5
61796,80035,2011/05/20 10:30:12,42.7675,9.8483,19.4,0.117779,0.024683,00111100,1,20,12.5
61796,80035,2011/05/20 11:00:17,42.7682,9.8507,19.48,0.108538,0.043123,00111100,1,15,12.4
61796,80035,2011/05/20 11:30:35,42.7688,9.8532,19.48,0.11225,0.036698,00111100,3,15,12.4
61796,80035,2011/05/20 12:00:11,42.7695,9.8556,19.48,0.110308,0.043827,00111100,3,15,12.5
61796,80035,2011/05/20 12:30:11,42.7702,9.8581,19.72,0.113371,0.043242,00111100,3,15,12.5
61796,80035,2011/05/20 13:00:12,42.7709,9.8605,19.72,0.108774,0.043218,00111100,3,15,12.5
61796,80035,2011/05/20 13:30:12,42.7715,9.8631,19.96,0.117903,0.037065,00111100,4,15,12.5
61796,80035,2011/05/20 14:00:17,42.7720,9.8655,20.04,0.108531,0.030802,00111100,4,17,12.5
61796,80035,2011/05/20 14:30:11,42.7724,9.8677,20.04,0.100096,0.024793,00111100,3,17,12.5
61796,80035,2011/05/20 15:00:12,42.7728,9.8695,20.04,0.081578,0.024696,00111100,3,15,12.5
61796,80035,2011/05/20 15:30:35,42.7729,9.8712,20.04,0.076116,0.0061,00111100,3,15,12.5
61796,80035,2011/05/20 16:00:11,42.7728,9.8731,19.88,0.087322,-0.006261,00111100,1,17,12.5
61796,80035,2011/05/20 16:30:18,42.7731,9.8747,19.88,0.072272,0.018461,00111100,1,17,12.5
61796,80035,2011/05/20 17:00:34,42.7735,9.8765,19.72,0.080903,0.024492,00111100,1,17,12.5
61796,80035,2011/05/20 17:30:11,42.7736,9.8784,19.48,0.087272,0.006257,00111100,1,17,12.5
61796,80035,2011/05/20 18:00:11,42.7736,9.8799,19.32,0.068018,0,00111100,1,19,12.4
61796,80035,2011/05/20 18:30:11,42.7734,9.8811,19.24,0.054415,-0.012355,00111100,1,19,12.4
61796,80035,2011/05/20 19:00:18,42.7733,9.8822,19.16,0.049687,-0.006154,00111100,3,20,12.5
61796,80035,2011/05/20 19:30:11,42.7733,9.8837,19.24,0.068284,0,00111100,3,20,12.5
61796,80035,2011/05/20 20:00:34,42.7729,9.8848,19.24,0.049251,-0.024398,00111100,4,22,12.5
61796,80035,2011/05/20 20:30:11,42.7727,9.8859,19.24,0.050526,-0.012515,00111100,4,20,12.5
61796,80035,2011/05/20 21:00:11,42.7727,9.8859,19.24,0,0,00111100,1,20,12.5
61796,80035,2011/05/20 21:00:52,42.7725,9.8869,19.24,1.99081,-0.542414,00144100,1,19,12.4
61796,80035,2011/05/20 21:30:18,42.7725,9.8876,19.24,0.032354,0,00111100,1,20,12.4
61796,80035,2011/05/20 21:30:52,42.7725,9.8876,19.24,0,0,00111100,3,20,12.4
61796,80035,2011/05/20 22:00:18,42.7724,9.8888,19.24,0.055463,-0.006296,00111100,3,22,12.4
61796,80035,2011/05/20 22:30:11,42.7726,9.8897,19.24,0.040971,0.012403,00111100,4,22,12.4
61796,80035,2011/05/20 23:00:17,42.7729,9.8908,19.24,0.049715,0.018471,00111100,4,20,12.4
61796,80035,2011/05/20 23:30:35,42.7735,9.8921,19.24,0.058366,0.036698,00111100,1,20,12.4
61796,80035,2011/05/21 00:00:11,42.7741,9.8939,19.24,0.082725,0.037566,00111100,1,19,12.5
61796,80035,2011/05/21 00:30:11,42.7746,9.8957,19.24,0.081621,0.030887,00111100,3,19,12.5
61796,80035,2011/05/21 01:00:11,42.7753,9.8970,19.24,0.058948,0.043242,00111100,4,17,12.4
61796,80035,2011/05/21 01:30:11,42.7759,9.8981,19.16,0.049878,0.037065,00111100,4,17,12.4
61796,80035,2011/05/21 02:00:12,42.7764,9.8989,19.16,0.036255,0.03087,00111100,3,15,12.5
61796,80035,2011/05/21 02:30:13,42.7767,9.9000,19.16,0.04985,0.018522,00111100,3,15,12.5
61796,80035,2011/05/21 03:00:11,42.7771,9.9010,19.16,0.045393,0.024737,00111100,1,19,12.5
61796,80035,2011/05/21 03:30:11,42.7777,9.9013,19.16,0.013603,0.037065,00111100,3,19,12.5
61796,80035,2011/05/21 04:00:11,42.7777,9.9013,19.16,0,0,00111100,1,19,12.5
61796,80035,2011/05/21 04:00:58,42.7776,9.9026,19.16,2.25748,-0.236585,00144100,3,14,12.5
61796,80035,2011/05/21 04:30:11,42.7779,9.9029,19.16,0.013967,0.019029,00111100,4,14,12.5
61796,80035,2011/05/21 04:30:58,42.7776,9.9026,19.16,-0.520956,-0.709755,00111100,1,14,12.5
61796,80035,2011/05/21 05:00:11,42.7783,9.9035,19.16,0.041902,0.044402,00111100,4,12,12.5
61796,80035,2011/05/21 05:30:12,42.7786,9.9043,19.16,0.036253,0.018522,00111100,4,12,12.5
61796,80035,2011/05/21 06:00:11,42.7791,9.9053,19.16,0.045367,0.030905,00111100,4,14,12.5
61796,80035,2011/05/21 06:30:11,42.7796,9.9064,19.24,0.049875,0.030887,00111100,4,14,12.5
61796,80035,2011/05/21 07:00:11,42.7800,9.9076,19.32,0.054409,0.02471,00111100,4,12,12.4
61796,80035,2011/05/21 07:30:11,42.7802,9.9087,19.32,0.049875,0.012355,00111100,4,12,12.4
61796,80035,2011/05/21 08:00:35,42.7803,9.9094,19.4,0.031321,0.006096,00111100,1,12,12.5
61796,80035,2011/05/21 08:30:12,42.7804,9.9098,19.4,0.018371,0.006257,00111100,1,12,12.5
61796,80035,2011/05/21 09:00:11,42.7804,9.9103,19.48,0.022683,0,00111100,1,14,12.5
61796,80035,2011/05/21 09:30:12,42.7804,9.9109,19.56,0.027189,0,00111100,3,15,12.5
61796,80035,2011/05/21 10:00:11,42.7804,9.9116,19.88,0.031756,0,00111100,3,17,12.5
61796,80035,2011/05/21 10:30:11,42.7805,9.9125,20.04,0.040806,0.006177,00111100,3,17,12.5
61796,80035,2011/05/21 11:00:17,42.7807,9.9134,20.28,0.040671,0.012314,00111100,3,14,12.4
61796,80035,2011/05/21 11:30:34,42.7809,9.9142,20.36,0.035933,0.012239,00111100,3,14,12.4
61796,80035,2011/05/21 12:00:10,42.7812,9.9148,20.44,0.027572,0.018783,00111100,3,12,12.4
61796,80035,2011/05/21 12:30:10,42.7817,9.9155,20.36,0.031738,0.030887,00111100,4,12,12.4
61796,80035,2011/05/21 13:00:11,42.7819,9.9163,20.52,0.036251,0.012348,00111100,4,12,12.4
61796,80035,2011/05/21 13:30:33,42.7824,9.9166,20.52,0.013438,0.030515,00111100,5,14,12.4
61796,80035,2011/05/21 14:00:10,42.7827,9.9169,20.52,0.013778,0.018772,00111100,5,20,12.4
61796,80035,2011/05/21 14:30:12,42.7832,9.9172,20.44,0.013586,0.030853,00111100,4,20,12.4
61796,80035,2011/05/21 15:00:10,42.7834,9.9177,20.36,0.022694,0.012369,00111100,4,15,12.5
61796,80035,2011/05/21 15:30:17,42.7837,9.9175,20.36,-0.009033,0.018461,00111100,1,15,12.5
61796,80035,2011/05/21 16:00:35,42.7837,9.9178,20.44,0.013467,0,00111100,1,17,12.4
61796,80035,2011/05/21 16:30:12,42.7838,9.9179,20.44,0.004592,0.006257,00111100,1,17,12.4
61796,80035,2011/05/21 17:00:12,42.7839,9.9178,20.44,-0.004534,0.006177,00111100,1,17,12.4
61796,80035,2011/05/21 17:30:11,42.7840,9.9173,20.44,-0.022682,0.006181,00111100,1,17,12.4
61796,80035,2011/05/21 18:00:11,42.7840,9.9173,20.44,0,0,00111100,1,17,12.4
61796,80035,2011/05/21 18:30:11,42.7844,9.9168,20.36,-0.022669,0.02471,00111100,4,19,12.4
61796,80035,2011/05/21 19:00:18,42.7848,9.9164,20.36,-0.018065,0.024614,00111100,4,20,12.4
61796,80035,2011/05/21 19:30:24,42.7848,9.9164,20.36,0,0,00111100,3,20,12.4
61796,80035,2011/05/21 20:00:34,42.7854,9.9167,20.28,0.013526,0.03686,00111100,1,20,12.4
61796,80035,2011/05/21 20:30:18,42.7858,9.9168,20.2,0.004574,0.024932,00111100,1,20,12.4
61796,80035,2011/05/21 21:00:18,42.7858,9.9168,20.2,0,0,00111100,1,20,12.4
61796,80035,2011/05/21 21:00:53,42.7860,9.9170,20.2,0.466318,0.6354,00111100,1,17,12.4
61796,80035,2011/05/21 21:30:11,42.7864,9.9168,20.2,-0.009284,0.0253,00111100,1,17,12.4
61796,80035,2011/05/21 21:30:53,42.7860,9.9170,20.2,0.388596,-1.059,00111100,3,17,12.4
61796,80035,2011/05/21 22:00:11,42.7864,9.9168,20.2,-0.009284,0.0253,00111100,3,17,12.4
61796,80035,2011/05/21 22:30:18,42.7868,9.9167,20.12,-0.004516,0.024614,00111100,3,17,12.4
61796,80035,2011/05/21 23:00:11,42.7873,9.9165,20.2,-0.009103,0.031008,00111100,3,17,12.4
61796,80035,2011/05/21 23:30:35,42.7884,9.9159,20.04,-0.026843,0.067058,00111100,3,19,12.4
61796,80035,2011/05/22 00:00:11,42.7888,9.9156,20.04,-0.013784,0.025044,00111100,3,19,12.4
61796,80035,2011/05/22 00:30:11,42.7891,9.9150,20.04,-0.027201,0.018532,00111100,4,19,12.4
61796,80035,2011/05/22 01:00:11,42.7893,9.9145,20.04,-0.022667,0.012355,00111100,4,22,12.3
61796,80035,2011/05/22 01:30:11,42.7894,9.9144,20.04,-0.004533,0.006177,00111100,6,22,12.3
61796,80035,2011/05/22 02:00:13,42.7895,9.9141,19.96,-0.013585,0.006171,00111100,6,19,12.4
61796,80035,2011/05/22 02:30:11,42.7895,9.9137,20.04,-0.018154,0,00111100,3,19,12.4
61796,80035,2011/05/22 03:00:11,42.7892,9.9137,19.96,0,-0.018532,00111100,4,20,12.4
61796,80035,2011/05/22 03:30:35,42.7893,9.9121,19.88,-0.07158,0.006096,00111100,4,20,12.4
61796,80035,2011/05/22 04:00:11,42.7891,9.9116,19.88,-0.022973,-0.012522,00111100,3,20,12.4
61796,80035,2011/05/22 04:30:11,42.7888,9.9107,19.96,-0.040801,-0.018532,00111100,3,20,12.4
61796,80035,2011/05/22 05:00:11,42.7888,9.9107,19.96,0,0,00111100,1,20,12.4
61796,80035,2011/05/22 05:30:11,42.7881,9.9097,19.88,-0.045335,-0.043242,00111100,1,19,12.4
61796,80035,2011/05/22 06:00:11,42.7875,9.9090,19.96,-0.031735,-0.037065,00111100,3,20,12.4
61796,80035,2011/05/22 06:30:11,42.7868,9.9080,19.96,-0.045336,-0.043242,00111100,3,19,12.4
61796,80035,2011/05/22 07:00:17,42.7863,9.9077,19.96,-0.013556,-0.030785,00111100,1,14,12.4
61796,80035,2011/05/22 07:30:17,42.7858,9.9075,20.28,-0.009067,-0.030887,00111100,3,14,12.4
61796,80035,2011/05/22 08:00:11,42.7855,9.9074,20.44,-0.004549,-0.018594,00111100,3,14,12.4
61796,80035,2011/05/22 08:30:35,42.7848,9.9076,20.76,0.008948,-0.042673,00111100,5,14,12.4
61796,80035,2011/05/22 09:00:11,42.7842,9.9076,21.08,0,-0.037566,00111100,5,15,12.4
61796,80035,2011/05/22 09:30:12,42.7842,9.9076,21.08,0,0,00111100,1,15,12.4
61796,80035,2011/05/22 10:00:11,42.7836,9.9075,21.56,-0.004536,-0.037086,00111100,1,15,12.4
61796,80035,2011/05/22 10:30:12,42.7824,9.9074,21.24,-0.004531,-0.074089,00111100,3,14,12.4
61796,80035,2011/05/22 11:00:12,42.7819,9.9068,21.32,-0.027204,-0.030887,00111100,3,12,12.4
61796,80035,2011/05/22 11:30:12,42.7813,9.9063,21.24,-0.02267,-0.037065,00111100,4,12,12.4
61796,80035,2011/05/22 12:00:13,42.7808,9.9058,21.08,-0.022657,-0.03087,00111100,3,14,12.4
61796,80035,2011/05/22 12:30:13,42.7808,9.9058,21.08,0,0,00111100,1,14,12.4
61796,80035,2011/05/22 12:30:52,42.7803,9.9055,21.24,-0.62779,-1.42558,00144100,3,14,12.4
61796,80035,2011/05/22 13:00:11,42.7797,9.9054,21.32,-0.00464,-0.037929,00111100,1,17,12.4
61796,80035,2011/05/22 13:00:52,42.7803,9.9055,21.24,0.199057,1.62724,00144100,1,14,12.4
61796,80035,2011/05/22 13:30:11,42.7793,9.9056,21.56,0.00464,-0.063215,00111100,1,17,12.4
61796,80035,2011/05/22 14:00:11,42.7787,9.9056,21.56,0,-0.037065,00111100,4,12,12.4
61796,80035,2011/05/22 14:30:11,42.7780,9.9054,21.56,-0.009068,-0.043242,00111100,4,14,12.4
61796,80035,2011/05/22 15:00:11,42.7772,9.9050,21.48,-0.018137,-0.04942,00111100,1,17,12.4
61796,80035,2011/05/22 15:30:12,42.7765,9.9044,21.48,-0.027191,-0.043218,00111100,1,17,12.4
61796,80035,2011/05/22 16:00:11,42.7758,9.9040,21.48,-0.018148,-0.043267,00111100,1,15,12.4
61796,80035,2011/05/22 16:30:34,42.7753,9.9029,21.32,-0.049249,-0.030498,00111100,1,15,12.4
61796,80035,2011/05/22 17:00:34,42.7742,9.9017,21.08,-0.054414,-0.067952,00111100,1,14,12.4
61796,80035,2011/05/22 17:30:11,42.7733,9.9008,21,-0.041339,-0.056317,00111100,1,14,12.4
61796,80035,2011/05/22 18:00:11,42.7725,9.8998,20.92,-0.045346,-0.04942,00111100,1,15,12.4
61796,80035,2011/05/22 18:30:11,42.7719,9.8987,21.08,-0.049881,-0.037065,00111100,1,15,12.4
61796,80035,2011/05/22 19:00:10,42.7714,9.8976,21,-0.049909,-0.030905,00111100,1,15,12.4
61796,80035,2011/05/22 19:30:16,42.7710,9.8966,20.92,-0.045197,-0.024628,00111100,1,17,12.4
61796,80035,2011/05/22 20:00:11,42.7706,9.8956,20.92,-0.045474,-0.024779,00111100,1,17,12.4
61796,80035,2011/05/22 20:30:11,42.7706,9.8956,20.92,0,0,00111100,1,17,12.4
61796,80035,2011/05/22 21:00:11,42.7701,9.8945,20.92,-0.049883,-0.030887,00111100,1,17,12.4
61796,80035,2011/05/22 21:00:52,42.7695,9.8937,20.84,-1.59272,-1.62724,00144100,1,15,12.4
61796,80035,2011/05/22 21:30:11,42.7690,9.8928,20.76,-0.041765,-0.031607,00111100,1,17,12.4
61796,80035,2011/05/22 21:30:52,42.7695,9.8937,20.84,1.79183,1.35604,00144100,1,15,12.4